Location: Oberkirch
(48.5323°N, 8.0787°E)
Time: 17:08:11
(UTC+00:00)

SL-08 RB Rocket - Pass Details

Date: 08 November 2025
Orbit: 632 x 667 km, 97.8° (Epoch: 10 December)

Event Time Altitude Azimuth Distance (km) Brightness Sun altitude
Rises 04:45:24 0° 5° (N) 3,017 7.1 -16.6°
Reaches altitude 10° 04:47:50 10° 355° (N) 2,095 6.1 -16.2°
Maximum altitude 04:51:49 30° 294° (WNW) 1,172 4.4 -15.6°
Enters shadow 04:53:29 24° 257° (WSW) 1,372 4.8 -15.3°
